Location: Marion Hill
(40.7303°N, 80.2959°W)
Time: 21:58:45
(UTC+00:00)

SAR-Lupe-4 - Pass Details

Date: 29 October 2020
Orbit: 481 x 484 km, 98.2° (Epoch: 22 November)

Event Time Altitude Azimuth Distance (km) Brightness Sun altitude
Rises 23:22:37 0° 11° (N) 2,552 7.0 -12.3°
Reaches altitude 10° 23:24:41 10° 9° (N) 1,667 6.1 -12.7°
Maximum altitude 23:28:15 74° 285° (WNW) 506 3.7 -13.4°
Drops below altitude 10° 23:31:48 10° 200° (SSW) 1,654 6.6 -14.0°
Sets 23:33:51 0° 198° (SSW) 2,529 7.5 -14.4°
